Theta_e
313 313 313 312 313 316 318 317 317 319 318 321 321 319 317 320 323 319 319 319 317 334 346 345 344 342 345 350 352 349 347 351 352 348 349 350 346 345 346 346 347 346 344 343 341 340 339 339 338 338 337 336 336 334 332 333 333 333 333 332 328 322 317 318 322 322 320 319 321 323 323 323 322 320 318 318 318 318 318 317 316 316 315 315 316 316 316 315 315 315 314 315 317 320 322 324 326
313 313 312 313 316 318 318 317 320 320 317 317 317 318 318 320 322 319 320 317 319 340 347 345 345 345 346 345 346 347 349 349 348 348 349 348 345 346 344 345 345 344 342 341 341 340 339 338 338 338 337 336 336 334 332 332 333 333 333 332 328 323 318 317 317 318 317 317 317 318 318 318 318 319 321 322 321 320 319 317 316 316 315 315 316 316 316 315 315 315 315 317 320 322 325 326 326
313 313 313 315 318 319 318 318 320 320 318 315 314 317 317 317 319 317 318 316 319 342 348 345 347 346 345 349 351 352 352 347 347 348 348 347 347 346 343 343 342 342 341 340 340 338 338 338 338 338 337 336 336 335 332 332 333 333 333 333 329 323 318 317 316 316 316 316 317 317 317 317 317 318 322 323 321 321 320 319 318 316 315 315 316 316 315 315 315 316 317 319 322 324 326 327 327
313 313 315 318 319 319 320 321 324 321 318 316 314 318 317 316 317 317 317 316 320 338 348 346 348 347 347 355 354 352 351 348 348 348 348 348 348 346 343 341 341 341 339 338 337 336 338 338 338 338 337 337 337 335 332 332 333 333 333 333 329 324 319 317 317 316 317 318 319 320 322 322 319 317 318 318 318 319 319 319 318 317 316 316 315 315 314 315 315 316 318 320 322 325 326 327 329
313 315 318 320 319 318 320 321 323 319 317 318 316 319 320 319 318 319 317 319 323 333 346 347 349 349 347 351 348 351 352 348 349 348 348 349 349 346 341 340 340 339 337 336 335 336 337 338 339 338 337 337 337 336 333 332 333 333 334 333 330 324 320 318 316 317 318 320 322 325 329 329 326 322 320 318 316 317 317 318 317 317 317 316 315 314 314 314 315 316 317 320 323 326 327 329 331
313 317 320 322 319 318 319 319 321 319 317 319 319 319 320 319 318 319 318 321 330 336 344 347 348 348 347 349 347 349 350 348 349 349 349 349 349 346 340 339 338 337 335 335 335 336 337 338 338 337 337 337 337 337 333 332 333 333 334 334 331 325 320 318 317 317 319 321 322 326 330 331 330 329 328 323 318 319 318 317 317 317 317 316 316 314 314 314 315 316 318 322 326 328 329 330 331
316 320 321 322 320 318 322 322 321 319 318 318 318 319 318 318 318 319 318 319 333 343 345 347 346 349 349 348 349 348 348 348 348 349 350 350 349 345 339 338 337 335 335 334 336 337 338 338 338 337 337 337 338 337 334 331 333 334 334 335 333 326 320 318 317 318 319 320 322 327 332 332 330 331 333 329 323 322 319 318 316 315 317 317 316 314 313 314 314 316 320 324 327 329 329 330 330
318 319 319 321 321 317 321 323 319 317 318 318 317 319 318 319 318 319 320 317 329 344 347 347 345 351 351 347 350 349 348 348 347 349 349 349 348 344 340 338 336 335 334 335 336 337 338 338 337 337 337 337 338 337 334 331 332 333 334 335 334 327 320 318 317 317 318 319 324 330 332 331 329 327 329 327 324 323 320 319 317 315 316 316 316 315 314 313 313 316 321 325 327 328 328 328 328
318 317 315 318 319 316 318 319 317 316 317 318 317 318 317 318 318 317 319 317 321 337 346 347 345 352 352 347 350 349 348 348 348 350 349 349 347 344 341 338 338 336 334 335 337 337 337 337 337 336 337 337 338 338 335 332 332 333 334 335 335 329 320 318 317 316 316 317 324 331 330 328 328 327 325 323 323 324 323 322 319 317 315 315 317 316 314 313 314 316 320 324 326 327 327 327 328
318 315 314 317 317 317 318 316 315 316 315 315 315 315 315 316 315 315 317 315 319 337 347 346 345 350 350 348 350 349 349 348 348 349 348 348 345 343 341 338 338 336 334 335 336 336 335 335 335 335 336 337 337 337 336 333 332 333 334 334 335 331 321 317 317 316 315 315 319 326 329 328 328 328 326 324 325 326 327 326 323 320 317 315 316 317 316 314 315 315 317 322 326 328 329 330 331
315 312 313 317 318 317 318 316 316 316 314 314 314 314 316 315 314 314 313 316 330 344 346 346 347 348 348 349 349 349 349 348 348 348 347 347 345 343 341 338 337 335 334 334 334 333 333 334 334 335 335 336 336 337 337 334 332 333 333 334 334 332 322 317 318 317 316 314 314 319 324 326 327 328 328 328 329 329 329 328 324 321 319 318 316 316 317 315 315 315 317 321 326 329 331 333 333
314 313 316 320 321 319 318 317 317 317 316 315 317 316 317 316 315 315 313 323 342 347 344 346 348 348 349 349 348 349 349 348 348 348 346 346 344 342 340 337 335 334 333 332 332 332 332 333 334 335 335 336 335 336 337 334 332 333 333 333 333 331 322 317 319 319 317 315 314 316 319 323 327 329 329 329 331 330 328 325 322 320 322 325 321 316 316 316 315 315 317 322 327 330 332 333 333
314 314 318 320 320 321 318 316 318 319 317 317 316 316 316 314 314 315 322 334 344 346 345 345 346 347 349 349 349 348 349 348 348 347 346 344 343 340 338 336 334 334 332 332 331 332 332 332 333 334 335 335 334 336 337 334 332 332 333 333 332 329 321 317 320 320 319 318 319 319 319 323 328 330 330 330 331 329 324 320 319 319 322 325 322 316 315 316 316 315 317 321 325 329 332 333 333
314 314 316 317 318 319 316 315 318 316 316 316 315 316 314 318 319 317 334 347 346 345 345 344 344 348 349 350 350 348 348 348 347 347 345 343 340 338 336 335 334 334 333 333 332 333 332 332 332 333 334 334 334 337 337 334 332 332 333 333 332 327 320 319 322 323 323 323 325 325 325 327 328 330 330 330 329 324 320 318 318 318 318 319 317 316 315 316 316 316 317 318 320 326 332 334 334
314 314 316 317 318 318 315 316 316 314 316 316 314 315 314 326 334 329 339 351 349 345 345 346 344 347 350 350 350 349 348 348 347 347 344 340 337 336 335 334 334 334 333 333 334 334 333 332 332 332 333 334 334 337 336 333 332 332 333 333 332 327 319 322 326 326 328 328 329 328 327 328 328 328 328 327 324 321 319 319 319 318 318 317 317 316 316 316 316 316 317 318 318 324 331 333 334
314 315 316 316 318 317 315 316 316 315 316 316 315 315 314 327 342 342 341 345 347 346 345 346 343 343 347 348 349 349 348 347 348 347 344 339 335 334 334 334 334 334 334 334 334 334 333 332 332 333 333 334 334 336 335 333 332 332 332 333 333 327 320 325 329 330 332 332 330 327 326 326 326 326 325 324 322 320 320 320 320 319 319 319 319 318 317 316 315 315 316 317 317 321 325 330 334
315 315 315 315 316 315 316 317 316 316 317 316 314 315 313 323 341 346 344 344 346 346 345 345 344 342 344 347 349 349 348 347 348 347 345 339 334 334 334 334 334 334 334 333 334 334 333 333 333 334 334 333 334 334 334 333 333 333 332 333 332 326 322 326 331 333 334 333 331 329 328 327 327 326 325 324 322 321 321 321 321 321 321 321 321 320 320 318 317 316 315 315 316 318 319 324 332
316 316 316 316 315 314 316 317 316 316 316 315 313 314 314 324 342 344 345 346 345 346 346 345 345 345 345 347 348 349 348 347 347 347 345 342 337 334 334 334 334 334 333 333 333 334 334 334 334 335 334 334 334 335 334 333 333 333 333 333 332 326 322 327 332 334 334 334 333 331 331 331 330 329 328 327 324 322 322 321 321 321 322 322 322 322 322 321 320 319 317 316 315 316 316 319 326
317 316 315 315 315 313 313 315 314 314 314 314 314 314 313 322 336 341 347 348 345 350 349 346 347 347 347 348 349 348 347 346 347 347 347 345 342 339 335 334 334 334 333 333 334 334 335 335 334 335 335 334 334 335 334 332 333 334 333 333 332 327 324 328 331 333 334 333 332 333 332 332 333 331 331 331 328 325 323 322 321 322 322 322 323 323 323 323 322 321 320 318 317 316 317 318 320
317 316 315 315 313 312 312 313 313 313 314 313 313 314 314 316 323 336 348 347 347 352 349 347 348 348 348 349 349 348 347 347 347 347 348 347 346 345 341 336 334 335 334 334 334 334 335 335 335 335 335 335 334 334 334 333 333 334 333 332 331 329 325 328 331 332 334 333 332 333 332 332 333 333 333 332 331 328 325 323 322 322 322 322 323 323 323 323 322 322 321 320 319 318 318 319 322
316 316 318 316 312 312 313 313 314 315 314 314 313 313 315 314 321 337 345 346 350 350 345 345 347 348 349 349 349 348 348 347 347 347 348 347 347 347 344 337 333 334 335 336 336 336 335 335 335 334 335 335 334 334 334 333 334 334 333 332 331 329 327 329 331 331 333 334 333 334 333 332 332 333 334 333 332 329 326 325 322 322 322 322 323 323 323 323 322 321 321 320 320 320 320 320 322
315 315 315 314 312 313 314 314 315 314 314 314 313 315 314 316 329 340 342 345 348 345 342 341 342 345 347 348 349 348 348 348 348 348 348 347 347 346 343 340 335 335 337 337 337 336 334 334 334 334 334 334 334 333 333 334 334 334 333 332 330 330 329 330 332 331 333 334 334 334 333 332 332 333 334 334 332 329 327 326 324 323 323 322 323 324 324 323 321 320 321 321 321 321 323 324 324
317 317 314 314 314 313 314 314 315 315 314 312 313 315 313 316 328 339 339 339 338 337 341 342 342 344 345 348 348 348 349 348 348 348 348 347 347 344 340 341 339 338 338 337 337 336 334 334 333 334 333 333 334 333 333 334 334 334 333 332 331 330 330 330 331 331 333 334 334 334 333 332 333 332 332 333 332 329 328 327 326 326 325 324 324 325 326 325 323 321 321 322 323 323 325 327 327
317 318 315 315 315 313 314 315 315 315 313 312 314 314 313 314 317 331 338 335 331 335 341 343 344 346 347 348 348 348 348 348 349 348 349 346 343 339 338 340 341 340 339 337 338 336 335 334 334 334 333 333 333 332 332 333 333 334 334 332 331 331 330 331 331 332 333 334 334 334 333 332 332 331 330 332 332 330 328 328 328 328 328 327 326 326 327 328 327 326 325 325 326 326 326 327 329
315 316 314 315 315 314 315 315 314 314 313 313 314 312 314 313 313 327 336 334 334 337 342 342 344 347 348 349 348 349 349 348 346 343 344 343 338 338 339 340 339 339 339 339 339 336 335 335 335 334 333 333 333 332 332 332 333 334 333 332 332 331 331 331 331 332 333 333 333 333 333 332 332 330 330 331 331 330 329 329 328 328 329 328 328 327 327 328 328 328 327 327 328 328 329 328 329
315 314 314 314 314 314 315 314 313 313 313 313 313 313 314 314 319 330 336 339 341 340 342 343 345 347 348 348 348 348 346 340 337 337 339 339 337 339 340 339 338 338 338 339 338 336 335 335 335 335 334 333 333 332 332 332 332 333 332 332 332 331 332 331 331 332 331 332 332 332 332 332 332 331 330 330 330 330 329 329 328 328 328 327 327 327 327 328 328 327 327 327 327 329 330 330 330
315 313 313 312 312 313 313 312 313 312 312 313 313 314 315 314 317 327 337 344 345 342 344 345 345 346 347 348 348 346 342 336 336 339 339 338 339 339 337 336 338 338 339 339 337 335 335 335 335 336 335 334 333 332 332 332 332 332 332 332 332 332 331 331 331 332 331 331 331 332 332 332 331 330 330 330 330 330 329 328 328 327 327 326 326 326 327 328 328 327 327 326 326 328 330 330 330
313 312 312 312 310 311 311 310 311 312 313 314 314 314 314 314 314 322 338 346 344 342 346 347 346 346 347 348 346 344 344 342 340 339 337 336 336 334 331 331 331 333 337 339 339 337 336 336 337 338 337 335 334 333 332 332 332 333 333 333 332 331 331 330 331 332 331 332 332 332 332 331 331 330 330 330 330 330 329 328 327 327 327 326 326 326 327 329 328 327 326 326 326 327 329 328 329
312 312 312 314 313 312 312 311 312 312 314 314 314 314 314 317 314 320 339 346 344 344 346 347 346 346 347 347 345 344 345 345 342 338 337 337 334 331 329 328 326 327 331 334 338 339 338 339 339 339 338 336 335 334 333 333 333 334 333 332 331 331 331 331 332 332 332 332 332 331 331 330 330 330 331 330 330 329 328 327 327 328 328 327 327 327 328 328 329 328 327 326 326 327 328 328 328
312 313 312 314 314 315 313 311 313 312 314 315 313 314 317 321 314 320 341 347 345 346 346 346 346 346 346 346 345 345 346 345 343 339 337 338 337 333 330 328 327 327 327 328 330 334 337 340 339 338 337 337 336 335 335 334 334 334 332 331 331 332 331 331 332 332 332 333 331 330 329 329 329 330 331 330 330 329 328 327 327 328 328 326 327 328 329 328 328 329 328 326 327 327 326 327 327
314 312 313 314 313 317 315 310 313 313 315 314 313 315 317 321 314 322 343 346 344 346 346 346 345 346 345 344 344 344 346 345 343 341 339 339 336 332 330 328 328 328 328 326 325 329 334 338 339 337 337 336 336 336 336 335 334 333 332 331 330 331 330 329 331 330 331 332 330 328 327 327 328 330 331 331 330 329 329 328 328 328 327 326 327 328 328 328 329 329 327 326 327 327 326 326 327
317 312 316 318 312 316 316 311 314 314 315 313 313 316 316 320 314 321 342 345 343 345 344 345 345 345 343 341 343 344 344 343 342 343 342 339 334 331 330 328 327 327 328 329 330 333 335 338 338 336 336 335 336 336 335 334 334 332 331 330 329 329 329 329 330 329 330 331 328 327 326 327 328 329 330 330 330 329 329 329 328 328 327 326 327 327 327 328 329 329 327 326 327 326 325 325 326
320 314 316 320 314 315 316 312 312 312 315 313 313 317 317 320 314 318 340 344 342 344 343 344 344 343 342 340 342 342 342 343 343 344 342 339 334 331 330 328 328 327 329 332 334 336 337 337 336 335 334 335 336 335 334 334 333 331 329 328 328 329 329 328 329 328 328 329 327 327 327 328 328 329 329 329 329 329 328 328 328 328 327 327 327 326 326 327 327 326 326 327 327 326 325 325 326
319 316 316 319 316 315 315 314 313 311 314 314 314 316 316 321 315 316 336 343 340 342 341 343 344 341 341 341 342 342 342 343 344 343 342 339 335 333 331 329 329 329 331 333 335 337 337 335 334 334 334 335 335 334 334 333 332 331 329 328 328 329 328 328 328 329 328 327 326 327 328 328 328 329 329 329 329 329 329 329 328 328 328 327 327 326 326 326 326 326 326 326 326 325 325 326 327
315 315 316 319 317 315 314 314 314 312 314 315 314 315 315 319 315 315 331 341 338 340 340 342 342 339 340 341 342 343 342 343 344 343 341 339 337 336 332 330 330 330 332 334 335 336 335 335 334 334 335 335 334 334 333 333 332 330 328 329 329 329 329 328 329 329 328 327 328 329 329 327 328 329 329 329 329 329 329 329 328 328 327 327 327 326 326 326 327 327 326 326 326 325 326 328 327
313 315 317 318 316 314 313 312 314 313 312 314 314 315 314 316 314 314 327 337 336 337 340 341 338 337 338 340 341 342 342 342 343 342 340 339 338 337 332 330 331 331 333 335 335 334 334 334 333 334 335 334 333 332 332 332 331 329 329 329 329 330 329 328 329 329 328 328 329 329 328 328 328 329 329 329 328 329 328 328 328 327 327 327 326 326 326 327 327 327 326 325 325 325 326 327 326
312 313 314 314 312 313 312 312 314 313 313 316 317 315 314 315 315 314 321 332 334 334 338 339 337 336 337 339 340 340 341 341 341 340 339 338 338 336 332 330 331 332 334 334 334 333 334 334 333 333 334 332 331 330 330 330 329 329 330 329 328 329 328 327 328 328 328 329 329 328 328 328 329 328 328 328 328 328 328 328 327 327 327 327 326 326 326 327 328 327 325 324 324 324 327 327 327
312 313 313 312 312 312 312 312 314 313 314 319 319 317 316 315 314 314 320 331 334 334 336 337 336 336 338 339 339 339 340 340 340 338 337 337 336 334 332 331 331 333 334 333 333 333 333 333 333 333 332 330 328 328 329 328 327 329 329 327 328 328 328 328 327 327 327 328 327 328 327 327 327 327 328 327 327 327 327 328 328 327 327 326 326 327 327 327 327 327 326 325 324 324 326 327 326
314 313 313 314 314 313 314 316 318 316 315 321 322 318 317 316 317 319 324 330 332 333 336 337 336 336 337 338 338 339 340 339 338 337 336 335 334 333 332 331 332 334 334 333 333 332 332 333 332 331 329 328 327 327 328 327 327 329 329 328 329 328 328 328 327 327 327 327 328 328 327 326 326 327 327 326 326 326 326 327 327 327 326 327 327 327 326 325 325 326 326 326 324 324 325 325 326
316 315 314 315 315 313 315 318 320 319 318 321 320 318 317 316 321 329 327 324 326 331 335 336 336 337 337 338 339 340 339 338 338 336 335 333 332 332 332 331 332 334 333 333 333 332 331 331 331 329 327 327 326 327 327 327 327 328 329 330 328 327 328 328 327 327 327 328 328 327 326 326 326 326 326 325 325 326 326 327 327 327 326 326 326 326 325 324 324 325 326 326 325 324 324 324 326
319 319 316 315 315 314 314 316 319 322 322 321 316 318 322 317 321 334 330 324 326 331 334 335 335 336 336 337 338 339 339 338 337 336 334 332 331 332 332 331 332 333 333 332 333 333 331 330 330 328 327 326 327 328 329 328 328 327 328 328 327 327 327 327 327 327 326 327 326 326 326 326 326 326 325 326 326 326 326 326 326 325 325 325 324 324 324 324 324 325 326 326 325 325 324 324 326
318 320 319 316 316 316 315 317 318 320 322 321 316 317 324 321 323 332 331 331 332 332 333 334 334 335 335 335 337 338 338 336 335 334 332 332 332 332 332 332 332 333 333 332 332 332 331 331 330 329 328 327 328 329 329 328 327 326 326 326 325 326 327 326 325 324 323 323 323 323 323 323 323 323 323 324 324 324 324 323 322 321 320 320 321 322 322 323 324 324 325 326 325 325 325 325 326
315 322 323 317 316 317 317 318 317 319 321 320 317 316 322 325 325 328 331 333 333 333 333 333 333 333 334 334 337 337 336 334 333 333 332 332 331 331 332 332 332 333 333 332 332 332 331 331 331 331 330 329 329 329 328 327 326 325 324 324 324 326 326 323 320 318 318 319 319 320 319 318 318 318 318 319 319 318 317 317 316 316 316 316 317 318 319 321 322 322 324 325 325 325 325 325 324
317 327 326 319 318 318 319 318 317 322 322 319 321 320 321 325 325 325 331 334 334 334 334 333 332 332 333 333 335 335 334 333 332 332 331 331 331 331 331 332 332 333 333 332 332 331 330 331 331 331 330 329 329 328 328 327 326 325 325 325 326 327 325 321 318 315 315 317 318 318 317 317 317 315 313 314 314 313 313 313 314 315 315 315 315 316 317 318 319 320 322 323 324 325 325 323 323
318 325 323 318 318 317 319 318 318 321 318 317 325 324 321 325 326 326 330 334 335 335 334 334 332 332 332 332 333 333 333 333 332 331 331 331 331 331 331 332 332 333 333 332 332 331 329 330 331 330 330 330 329 328 327 326 327 327 326 326 327 328 325 321 318 316 316 317 318 318 318 318 318 317 314 313 313 312 312 313 314 315 315 315 316 318 319 317 317 319 321 322 323 324 324 324 323
317 319 319 316 316 318 319 318 318 318 316 316 323 326 323 324 327 328 331 334 335 334 334 333 332 332 332 332 332 332 333 332 331 330 330 330 331 330 330 331 332 333 333 332 332 331 329 329 330 330 330 329 328 327 326 327 328 328 327 326 326 325 322 320 319 317 317 319 320 320 320 320 321 321 318 314 314 315 316 316 316 317 316 317 318 319 318 316 317 319 321 322 323 324 324 324 324
315 317 316 314 318 322 323 327 324 318 321 323 322 327 327 323 325 329 332 334 333 333 333 332 331 331 332 332 332 332 332 332 331 330 330 330 330 330 330 330 331 333 333 333 333 332 330 329 330 330 330 328 327 327 328 329 329 328 326 326 324 321 318 317 317 315 316 319 320 321 321 322 322 321 319 315 315 317 318 318 318 317 316 316 315 315 315 315 317 319 320 321 323 323 323 323 324
314 318 317 315 322 323 321 328 324 317 324 328 324 326 324 321 324 329 333 331 330 332 332 332 331 331 330 331 331 331 331 331 330 330 330 330 330 330 329 329 331 333 333 333 333 332 331 330 330 330 328 327 326 327 329 329 329 328 327 326 325 322 316 314 313 311 313 316 318 319 321 321 320 320 318 313 313 317 317 317 317 316 315 313 311 312 314 316 317 318 319 321 322 322 323 323 323
314 318 318 317 320 319 321 328 323 321 326 324 323 323 320 324 327 328 332 330 328 330 331 331 331 330 330 330 330 331 331 331 330 330 330 330 331 330 330 330 330 332 333 333 333 332 332 331 329 328 327 325 326 328 329 329 329 328 328 327 327 325 318 312 311 310 312 314 315 316 318 318 318 318 315 311 314 318 318 317 317 316 313 309 310 313 314 316 318 319 320 321 322 322 323 323 323
313 317 319 318 319 318 322 328 322 322 322 319 321 319 318 329 329 327 329 327 326 329 329 330 330 329 330 330 331 331 331 331 331 330 330 330 331 330 330 331 331 331 332 333 333 332 332 331 328 328 327 326 326 328 329 329 329 328 329 328 328 327 320 313 312 311 312 314 315 316 314 314 315 314 311 312 317 319 319 318 317 314 310 306 309 312 314 316 319 321 322 322 322 322 322 323 322
314 318 318 318 325 324 323 327 324 323 322 321 324 319 319 330 330 326 327 325 325 328 328 330 329 329 330 330 330 331 330 331 332 331 330 329 330 331 330 331 331 331 331 331 332 331 331 330 328 327 328 327 327 328 329 329 328 329 329 328 328 326 319 314 315 315 314 315 317 318 313 311 312 311 310 314 318 319 318 318 316 313 308 305 306 308 311 315 320 322 323 322 321 320 320 321 321
315 317 316 315 323 326 323 324 327 328 325 322 324 324 324 330 330 326 328 327 326 327 327 328 328 328 329 329 329 329 329 330 331 332 330 329 329 330 330 331 331 331 330 330 331 331 330 330 329 328 328 328 328 328 328 328 328 329 328 328 328 324 318 317 318 319 319 318 318 319 315 311 311 310 309 312 316 318 318 318 316 312 309 307 306 306 308 312 318 321 322 321 320 318 318 318 319
318 315 316 316 317 323 325 321 322 326 324 318 323 331 333 333 331 328 331 332 329 328 327 327 328 328 328 329 329 329 330 330 331 332 331 329 329 329 329 330 330 330 330 331 331 331 330 329 329 329 329 329 329 328 328 328 328 329 328 328 326 322 321 321 320 321 322 319 318 319 317 311 308 307 307 309 314 317 318 317 315 312 310 309 307 305 305 307 312 317 318 319 319 317 317 317 318
320 317 318 318 315 320 328 326 326 326 322 321 326 334 335 334 333 330 330 331 327 327 328 327 328 329 328 329 329 329 330 331 332 332 332 330 329 329 329 329 329 329 330 331 330 331 330 328 329 330 330 330 329 328 329 328 328 328 328 327 324 324 325 324 323 322 320 318 319 321 320 314 308 306 307 308 310 313 316 316 314 312 311 310 307 305 305 305 307 310 312 312 312 312 314 316 316
318 320 319 321 321 322 323 325 328 325 322 322 323 326 328 329 331 330 328 327 326 326 327 327 328 328 328 328 328 329 330 331 332 332 332 332 331 330 329 329 329 329 330 330 330 331 330 329 329 330 331 330 328 328 328 327 326 325 325 325 326 326 327 326 325 321 317 318 321 321 318 313 308 307 307 307 307 308 310 312 312 312 311 309 306 304 305 305 305 306 307 306 306 306 308 312 314
314 316 317 322 330 328 322 322 326 327 326 323 320 324 328 327 325 326 326 324 325 326 326 326 327 326 326 327 327 328 328 330 331 332 332 332 330 330 329 329 330 330 330 329 329 330 330 329 329 330 331 330 328 328 327 326 324 322 323 325 327 327 327 326 323 319 317 320 322 319 314 310 308 308 308 306 306 306 307 309 310 310 309 307 305 304 304 304 304 305 306 305 305 305 306 310 314
316 318 317 320 324 322 321 320 322 328 331 327 324 327 329 325 323 325 325 324 325 326 326 325 325 325 326 326 326 327 328 329 330 330 332 330 328 328 329 330 330 329 330 329 329 329 329 329 329 330 331 330 328 327 327 326 324 322 324 327 328 327 326 323 321 319 319 320 320 317 312 309 308 307 307 305 305 305 306 307 308 307 306 304 303 304 304 305 306 307 307 307 306 306 306 309 314
324 324 321 323 324 321 321 320 320 327 332 328 328 330 327 323 323 324 324 323 324 324 324 324 323 323 324 324 324 325 326 328 328 329 330 329 328 328 328 329 330 330 330 330 330 329 329 329 329 329 329 328 327 326 326 326 324 323 325 327 327 326 324 322 321 320 320 320 319 316 312 309 307 307 305 304 304 304 305 306 306 305 304 304 305 306 306 307 308 309 309 309 308 308 308 308 310
Wind_Speed
11 11 10 10 9 9 5 4 2 2 2 1 3 2 4 5 2 4 7 5 3 3 5 7 3 7 6 7 8 8 6 1 3 3 4 12 26 25 23 27 29 32 32 32 31 30 28 27 26 25 25 24 23 22 21 20 19 17 15 15 15 15 17 18 20 20 21 22 22 22 21 20 18 17 16 16 16 16 16 15 15 15 14 14 14 14 16 19 18 18 18 17 17 17 16 16 16
12 11 10 10 8 6 3 2 1 2 2 3 4 4 5 3 3 7 8 3 3 4 7 15 15 13 11 12 9 6 7 5 1 7 14 26 30 23 24 27 30 32 32 33 32 30 29 28 26 25 25 24 23 22 21 20 19 17 15 15 15 15 17 19 20 20 21 22 22 22 21 20 19 18 17 16 16 16 15 15 14 14 14 14 15 16 18 19 18 18 18 18 17 17 17 16 15
12 11 10 9 7 5 3 3 1 1 2 5 4 4 4 2 7 8 5 3 7 8 7 7 8 8 7 6 5 3 3 3 8 18 23 29 30 27 26 28 31 32 32 32 31 31 30 28 27 25 25 24 22 21 21 20 19 17 15 15 15 16 17 18 20 20 20 21 22 21 20 19 18 17 16 16 15 15 14 14 14 14 14 15 15 17 19 19 19 19 19 18 17 17 16 16 15
13 11 10 8 5 3 4 2 2 4 3 4 4 6 4 4 8 7 7 9 11 13 11 4 4 4 5 5 5 6 3 4 14 23 25 29 29 29 29 31 33 32 32 32 31 31 30 29 26 25 25 23 22 21 20 19 18 17 15 15 14 15 16 17 18 20 20 20 20 20 19 17 17 17 16 15 14 14 14 13 13 14 14 15 16 17 19 19 19 20 19 19 17 17 16 15 14
13 11 9 7 4 1 2 1 2 3 5 4 2 6 4 6 6 5 10 16 14 17 15 8 4 4 8 7 3 4 7 11 16 20 27 30 28 29 31 34 34 33 32 31 31 31 30 28 26 25 24 23 21 20 20 19 18 16 15 15 14 14 15 16 17 18 19 19 19 18 17 15 15 15 15 15 14 13 13 12 12 12 13 15 16 17 19 20 20 19 19 18 18 17 16 15 14
12 10 7 5 2 1 2 1 2 4 5 4 3 6 6 6 5 8 13 17 11 12 11 7 6 7 8 6 5 10 11 13 17 22 28 31 29 30 32 35 34 32 31 31 31 30 30 28 26 25 24 23 21 20 20 19 18 16 15 14 13 13 14 15 15 16 17 18 17 17 16 14 14 14 14 14 14 13 12 11 11 11 12 14 16 17 19 20 20 19 19 19 19 18 16 15 13
12 9 4 2 2 1 2 2 5 5 5 4 4 8 9 8 10 10 9 11 6 6 6 5 10 12 6 4 8 9 6 10 19 23 27 30 30 30 33 34 33 32 31 31 30 29 29 27 26 25 24 22 21 20 20 20 18 16 15 14 13 12 12 13 14 15 15 16 16 17 16 15 13 13 14 13 13 13 12 11 11 11 12 14 16 17 19 20 20 20 20 20 20 19 17 15 12
11 6 3 3 1 2 1 3 5 3 4 5 5 11 14 16 15 10 6 4 2 4 6 9 9 5 2 4 6 5 8 13 17 21 25 27 29 31 33 33 32 32 31 31 30 29 28 26 26 24 23 22 21 20 20 20 18 16 14 13 12 11 11 12 12 13 14 14 16 17 16 15 12 11 12 12 12 13 12 11 11 11 11 13 16 17 18 19 20 20 21 20 20 19 17 15 12
10 5 3 2 1 1 1 4 5 3 5 6 7 13 19 24 19 11 8 5 6 7 11 16 4 2 6 6 7 9 13 15 17 22 24 25 28 30 31 31 30 31 32 31 30 28 28 26 25 24 23 22 21 20 20 19 18 16 13 12 12 10 10 11 11 11 11 13 15 16 15 14 13 11 10 10 11 12 12 11 11 11 11 13 15 17 18 20 20 20 21 20 20 19 17 15 12
9 4 2 2 2 1 4 3 4 4 5 6 9 17 22 25 19 12 11 8 8 10 16 15 3 5 11 7 7 8 13 17 20 23 24 25 27 29 30 30 28 30 32 31 29 28 27 26 25 24 23 22 21 20 20 19 18 16 13 12 12 10 10 11 10 10 10 11 13 15 15 14 13 12 10 10 10 11 12 11 11 10 11 12 14 17 18 20 20 20 19 19 20 20 18 16 13
5 2 2 3 2 1 4 4 5 5 7 5 10 21 25 25 18 13 11 8 5 7 14 9 4 13 12 6 6 8 16 20 21 24 24 25 26 28 30 29 28 29 32 31 30 29 27 26 25 23 23 22 21 20 20 19 18 16 14 12 11 10 10 11 10 9 9 9 11 13 14 14 13 12 11 12 10 9 10 10 10 10 10 11 13 16 18 19 20 20 19 20 20 20 19 17 14
3 1 3 3 2 3 4 3 5 7 8 6 9 17 21 21 14 9 8 4 6 7 10 10 13 17 9 3 7 14 22 22 21 23 23 25 26 27 28 29 28 29 30 31 30 29 28 27 25 24 22 21 21 20 20 19 18 16 14 12 11 11 11 11 11 10 10 10 11 12 13 14 14 13 12 12 10 9 10 9 9 10 10 11 11 13 16 18 19 21 21 21 21 20 20 18 15
5 2 5 2 3 3 2 3 5 7 7 5 5 12 20 18 13 10 5 4 10 8 6 11 20 17 6 5 13 20 24 23 21 21 23 24 26 28 29 30 30 30 30 30 30 29 28 27 25 24 22 21 21 20 19 19 18 17 15 13 11 11 12 12 11 10 11 11 11 11 13 14 14 14 13 12 10 9 9 9 9 10 10 10 10 11 13 16 19 21 22 22 21 20 20 18 16
7 3 4 1 1 2 2 3 5 3 5 7 4 15 22 15 9 9 11 8 5 6 5 15 24 14 7 9 13 23 24 23 23 21 23 23 26 29 29 31 31 31 31 31 30 29 28 27 25 24 23 22 21 20 19 19 18 17 15 13 11 11 12 12 11 11 12 12 12 12 14 14 15 14 13 12 10 9 10 10 10 11 10 10 9 10 11 13 15 19 21 21 20 20 20 19 17
8 2 3 1 2 2 2 4 3 2 5 6 6 17 23 17 7 7 12 7 2 6 10 17 21 8 10 13 12 26 28 25 25 22 24 24 28 30 30 32 31 32 31 30 29 29 28 26 26 25 24 23 22 21 20 20 19 18 16 14 12 12 13 12 12 12 13 13 13 14 14 14 14 13 12 11 10 10 11 11 11 11 10 10 10 10 10 11 12 14 17 20 20 20 20 20 18
6 1 3 1 3 2 3 4 2 2 4 5 11 17 17 17 9 6 4 8 10 12 10 13 15 2 12 17 17 32 30 27 27 23 26 26 30 31 31 32 31 32 31 31 29 29 28 26 27 25 25 24 23 23 22 22 20 19 17 15 13 13 14 13 12 13 14 14 14 14 13 13 13 12 12 11 11 11 12 12 12 12 11 11 11 11 11 11 11 12 13 17 20 21 20 20 19
3 1 2 1 4 3 4 4 3 4 6 7 14 17 11 13 10 6 7 14 18 13 6 8 12 5 13 18 22 35 31 30 29 26 29 29 32 33 32 33 33 33 31 31 30 29 28 27 27 26 26 25 24 24 23 23 21 21 18 16 14 14 15 13 13 13 14 15 14 14 13 13 12 12 11 11 12 12 12 12 12 12 12 12 12 11 11 11 11 11 11 13 17 20 19 19 20
4 2 3 3 4 5 5 6 5 4 6 7 13 18 9 8 8 5 9 13 16 12 8 9 8 4 16 19 26 35 32 33 31 30 31 31 34 34 35 35 34 34 32 31 29 29 28 27 27 26 26 25 25 24 24 23 22 21 19 17 15 15 16 15 14 13 14 15 14 13 12 11 12 11 11 11 11 11 11 11 11 12 12 12 11 11 10 10 10 10 10 10 13 17 19 19 20
7 3 2 5 5 5 4 5 6 5 8 11 18 19 10 8 7 1 2 3 7 9 9 12 15 15 19 23 32 35 33 36 33 32 32 32 35 35 36 36 36 35 33 31 29 29 28 28 27 26 26 26 25 24 24 24 22 21 19 17 15 15 16 15 15 14 14 14 14 13 11 11 11 11 11 10 10 11 11 11 10 11 11 11 10 10 9 9 8 8 8 9 11 14 16 18 18
10 6 2 7 5 5 7 9 12 14 15 12 15 16 13 14 9 4 2 2 1 4 7 11 17 22 26 31 35 34 36 38 35 33 31 33 34 34 36 37 37 35 33 32 30 30 29 28 27 26 26 26 25 25 24 23 22 20 19 17 15 15 16 15 15 14 15 14 13 13 12 11 11 11 11 10 9 10 10 10 10 10 10 9 9 8 8 8 7 7 8 9 10 12 14 16 16
6 8 5 6 2 5 10 11 16 21 20 14 15 15 14 14 7 6 7 5 3 5 13 15 19 28 34 35 36 36 38 37 36 34 31 34 35 34 35 35 36 34 33 32 30 30 28 27 27 26 25 25 25 25 24 23 22 20 19 17 15 15 16 15 15 15 15 14 13 12 12 11 10 10 9 9 9 9 9 9 9 9 8 8 7 7 6 6 7 7 8 9 10 11 13 14 15
2 5 10 10 4 6 11 14 19 23 22 17 13 13 14 11 4 10 13 6 5 11 18 20 23 30 36 38 38 37 38 38 38 36 34 36 36 35 35 34 35 34 31 31 31 29 29 28 26 26 25 25 24 23 23 23 22 20 19 17 16 16 17 16 15 15 15 15 14 12 12 10 10 9 8 8 8 9 8 8 8 8 7 7 6 6 5 5 6 7 8 9 10 11 12 12 13
3 5 9 13 10 8 13 19 23 25 21 14 13 17 18 9 3 13 16 10 9 12 17 19 22 29 34 39 40 39 39 39 39 37 35 36 36 35 32 32 32 32 31 30 30 29 28 27 26 26 24 24 24 23 23 23 21 19 18 17 17 17 18 18 16 15 15 15 14 13 12 10 10 9 7 8 7 8 9 9 8 7 7 6 5 5 5 5 6 7 7 7 8 10 10 10 11
6 5 7 14 15 13 18 23 26 28 22 21 24 22 18 10 6 10 16 17 12 9 13 19 24 29 33 37 38 39 39 38 37 36 35 32 32 29 25 27 28 30 32 30 28 28 28 26 25 24 24 24 23 23 23 23 21 18 17 17 18 19 20 19 16 16 16 16 14 13 12 11 11 9 8 8 7 8 8 8 7 6 6 5 5 5 5 5 6 6 6 6 6 8 9 9 9
6 7 8 12 15 17 22 24 24 28 25 28 25 15 19 19 8 7 12 16 11 9 13 19 26 29 33 35 36 36 33 30 23 21 25 23 23 26 24 24 26 29 31 27 25 26 26 25 24 24 24 24 23 23 23 23 21 19 19 18 18 20 21 19 16 16 16 16 14 13 12 12 11 10 9 8 7 7 8 7 6 5 5 5 5 5 5 5 4 5 5 5 5 6 8 8 8
6 10 12 11 13 18 21 20 21 24 23 23 14 9 22 19 5 4 6 9 11 13 16 21 27 30 32 34 33 30 22 16 17 16 17 16 18 28 26 20 20 23 24 22 24 26 25 24 23 23 23 23 23 23 23 23 21 20 19 18 19 22 21 18 16 16 16 15 14 13 13 12 10 9 8 8 7 7 7 7 5 5 5 6 6 6 6 5 4 4 4 4 5 5 7 6 7
9 10 12 12 15 19 19 18 21 22 19 19 10 9 22 14 5 3 5 11 15 17 20 24 28 29 33 33 28 22 17 14 15 13 13 13 20 25 21 15 12 13 17 18 21 23 24 23 22 21 21 22 22 23 23 22 20 19 18 18 21 21 20 18 16 16 15 14 13 12 12 11 10 8 7 7 8 7 7 6 5 5 5 6 6 6 6 5 4 4 4 4 4 5 6 6 6
11 9 9 11 12 14 15 14 19 16 11 17 14 11 18 8 3 6 13 17 18 21 24 26 28 28 29 26 20 17 18 16 11 14 15 20 24 19 17 16 8 7 11 13 17 19 21 21 20 20 21 22 22 22 21 20 19 18 18 19 21 20 19 17 15 15 14 13 12 12 11 10 9 7 6 7 8 7 6 5 5 5 5 5 5 5 6 5 4 4 4 3 3 4 6 6 6
8 5 4 8 8 7 11 10 14 10 5 15 10 5 11 3 4 7 18 22 21 23 25 25 25 25 22 19 17 15 18 18 15 18 20 22 21 15 19 19 11 11 10 8 11 15 18 19 20 20 21 22 21 21 20 18 18 18 19 21 22 20 18 16 14 14 13 13 12 11 10 9 8 7 7 7 8 7 6 5 4 4 4 3 4 4 5 5 4 3 3 3 3 4 5 6 6
5 3 1 5 7 6 7 6 9 7 5 12 7 2 8 6 10 8 20 24 23 23 23 23 22 21 17 16 17 16 19 20 19 21 21 20 17 18 21 21 19 19 16 12 11 15 18 20 21 21 21 21 20 19 19 18 18 19 20 21 20 19 18 15 15 14 13 13 12 11 9 9 8 7 7 8 8 7 6 5 4 4 4 4 4 5 6 6 5 4 3 3 4 5 5 5 5
2 3 1 2 2 5 7 4 3 3 5 8 10 4 7 8 12 10 23 26 26 23 20 20 21 21 16 16 18 18 21 21 19 20 19 18 18 20 19 19 21 20 20 19 16 18 22 23 22 21 21 19 19 19 18 18 18 19 20 20 19 18 17 16 15 14 14 14 12 10 8 9 8 8 9 10 9 8 7 6 5 5 5 4 5 6 6 6 6 5 3 3 4 5 5 5 5
2 2 4 3 2 5 9 6 4 5 5 4 10 4 5 8 12 13 25 26 26 24 20 21 22 20 17 19 21 20 21 19 17 17 17 18 21 22 18 19 20 20 21 20 19 23 25 24 22 22 21 18 19 19 18 18 19 19 19 19 18 17 17 16 15 15 14 14 12 10 10 10 10 10 11 11 9 8 8 8 7 6 6 5 5 6 6 6 6 6 5 5 5 4 4 4 5
3 1 4 4 3 3 6 6 4 6 4 2 6 4 3 6 8 13 27 26 24 22 20 23 23 19 20 24 24 22 23 22 20 18 18 21 23 21 18 18 18 19 21 21 21 24 25 24 23 23 21 18 20 20 20 20 19 19 19 18 17 16 17 16 15 15 14 13 12 11 11 11 11 11 11 11 10 9 8 8 7 6 6 6 6 6 6 6 7 7 6 6 5 4 3 3 4
3 2 2 4 3 3 3 5 6 2 1 3 3 3 5 8 5 12 26 26 23 20 21 25 22 20 23 26 26 25 24 23 24 23 22 24 24 21 19 17 16 17 20 20 21 23 23 23 23 22 21 20 21 21 21 21 20 19 18 17 16 16 16 15 15 14 12 13 13 12 12 12 11 10 10 10 9 9 8 7 6 5 6 7 6 6 7 7 7 7 8 7 6 4 3 4 4
1 1 1 3 3 4 4 3 5 5 3 4 3 4 7 10 6 10 23 26 22 21 24 24 21 23 26 26 26 26 25 25 25 24 23 25 25 21 19 17 15 17 19 21 22 22 22 22 22 22 22 22 22 22 22 21 21 20 19 18 17 16 16 15 15 13 12 13 14 13 12 12 11 10 9 9 8 7 7 7 6 6 7 7 7 7 7 7 7 8 8 7 7 6 6 5 5
3 3 4 3 4 6 6 5 6 4 5 6 5 7 8 11 8 6 19 24 19 19 22 20 21 24 27 27 27 27 27 27 25 22 23 26 26 23 21 19 18 20 21 22 22 22 22 22 22 22 23 23 22 23 23 23 23 22 21 19 17 17 16 14 14 14 14 14 14 13 12 12 11 9 9 8 8 8 7 7 7 7 7 7 7 7 7 7 7 7 8 8 8 8 7 7 6
2 2 2 4 4 7 7 5 6 3 3 6 6 7 8 11 10 4 17 20 15 16 17 18 22 26 28 29 28 28 28 26 23 22 25 28 27 25 23 21 21 22 22 22 22 22 22 23 24 24 24 23 23 25 25 25 25 24 22 19 17 17 15 13 13 14 14 13 13 12 11 10 9 9 8 8 8 8 8 8 7 8 7 7 7 7 7 7 8 8 8 8 8 8 8 8 8
1 3 4 5 4 7 8 5 8 5 1 6 7 6 9 12 9 3 15 14 11 18 18 18 23 26 29 30 29 29 28 25 24 26 29 28 27 27 25 24 24 23 23 23 23 22 23 24 25 25 25 24 23 24 25 24 23 23 21 17 16 15 13 11 11 12 12 12 12 11 10 10 9 9 8 8 8 8 8 8 8 8 7 8 8 8 7 7 8 8 8 8 9 9 8 8 9
3 2 2 5 4 5 8 5 6 3 3 5 7 6 11 10 2 4 13 13 16 26 28 29 31 28 28 31 31 32 30 28 29 30 30 28 27 27 26 26 26 25 25 24 23 22 23 25 26 25 25 24 23 23 23 22 21 20 17 14 13 13 12 11 12 12 12 13 12 11 10 9 9 9 8 8 8 8 9 9 9 8 8 8 8 8 8 8 8 8 8 8 8 9 9 9 10
2 2 1 5 4 2 5 4 4 3 2 5 6 6 8 4 4 3 5 10 15 20 24 30 35 33 33 34 35 35 34 33 32 31 30 28 27 27 27 28 27 26 26 25 24 23 24 26 26 26 25 23 23 22 21 21 20 18 14 13 13 13 13 14 14 13 13 13 13 12 11 10 9 9 8 8 8 8 9 9 9 9 9 8 8 8 8 8 8 7 8 8 8 9 9 10 10
3 5 5 5 6 6 7 5 4 4 4 4 2 5 6 4 3 3 5 2 8 13 19 21 24 28 30 32 33 35 34 33 32 32 31 30 28 27 28 28 28 28 27 26 25 24 24 26 26 26 24 23 23 21 20 20 19 17 15 16 16 15 16 16 16 15 14 14 13 12 11 10 10 9 9 9 9 9 9 9 8 8 8 8 8 7 7 8 7 7 7 7 7 8 8 10 10
4 5 9 10 9 9 8 7 4 5 6 3 3 4 6 6 4 4 6 3 6 10 16 18 20 23 25 28 31 33 33 31 31 32 31 29 26 28 29 28 29 29 27 26 25 23 23 25 26 26 23 22 22 20 20 20 18 17 17 18 18 19 19 17 16 15 15 14 13 12 12 11 10 9 9 9 9 9 9 8 8 7 7 7 8 7 6 6 6 5 5 5 6 7 8 9 9
5 6 10 13 11 9 9 7 2 1 5 4 3 1 4 5 6 6 5 4 8 6 9 13 18 23 25 28 31 34 34 33 33 31 29 27 26 29 30 28 29 29 27 26 24 23 24 26 27 25 23 22 21 20 20 20 19 18 18 19 20 20 18 17 15 14 14 14 13 12 12 11 9 8 9 10 10 9 9 8 8 7 7 7 7 7 7 6 6 6 6 5 5 7 8 7 8
5 6 8 9 9 9 9 7 5 3 4 4 2 3 2 3 3 5 4 7 9 7 9 9 13 20 25 29 33 35 35 34 33 30 28 26 27 30 30 28 28 29 28 26 24 24 25 26 27 25 24 23 22 21 20 20 20 19 19 20 20 19 16 16 15 14 14 14 13 12 11 10 8 7 8 10 10 9 9 9 8 7 6 7 6 6 6 6 6 7 7 7 6 7 8 6 6
8 7 7 7 8 9 9 6 4 2 1 5 6 2 2 4 4 4 4 6 9 10 12 10 11 19 24 27 31 32 32 31 29 28 27 25 26 30 31 29 28 29 28 26 26 26 26 27 27 27 26 24 23 22 21 21 20 20 20 21 20 18 15 14 14 14 15 14 13 12 10 9 7 7 7 10 10 9 9 9 9 7 6 6 6 5 5 5 6 7 7 7 7 8 9 8 6
8 6 5 4 3 3 3 4 4 1 2 5 8 1 3 3 4 3 2 3 7 9 10 10 12 18 21 24 27 26 26 28 26 25 25 23 24 28 29 29 29 30 30 28 28 28 28 29 28 28 27 25 24 22 22 22 21 20 20 20 19 18 16 15 15 15 16 14 13 12 10 8 7 5 5 8 9 9 8 8 7 6 5 6 6 6 6 6 7 7 7 6 7 9 9 9 8
3 4 4 3 2 3 2 2 4 2 1 7 9 4 4 1 4 3 3 3 6 8 7 7 10 16 21 23 22 21 21 24 24 23 22 22 23 26 27 28 30 32 31 30 30 30 30 29 29 28 27 26 25 24 24 23 21 21 19 18 16 15 15 16 16 16 17 15 13 12 11 9 7 5 3 5 9 9 8 7 6 4 4 4 5 6 6 7 8 8 6 6 6 7 8 8 8
3 3 3 2 4 3 4 4 3 3 4 7 7 5 4 2 3 4 4 4 7 11 12 13 14 17 22 19 15 14 14 18 20 20 20 22 24 25 26 28 30 32 32 31 31 30 30 30 29 29 28 27 26 25 25 24 22 20 18 16 14 12 13 15 16 16 15 15 13 12 11 9 7 5 3 4 8 10 8 7 5 3 2 3 4 6 7 8 9 8 8 7 6 7 7 8 8
5 3 4 3 2 3 2 2 0 2 5 6 5 2 3 2 4 4 5 6 8 11 8 12 17 18 18 15 12 14 16 19 20 19 20 22 25 25 26 28 30 32 33 33 32 31 31 30 29 29 28 28 27 26 26 25 22 20 17 16 15 12 12 14 14 14 13 12 11 10 8 6 5 4 4 5 8 9 8 6 5 2 2 3 5 7 9 9 9 9 9 8 8 8 8 8 8
6 5 4 4 2 1 2 3 1 2 4 4 5 2 1 2 3 3 7 7 9 11 8 10 18 21 22 22 23 25 26 26 21 19 20 22 26 27 28 30 31 31 33 34 33 31 31 31 30 30 29 29 28 27 26 25 22 20 18 17 15 13 12 13 13 12 11 11 9 7 5 4 4 3 5 8 9 8 7 6 4 2 2 5 7 8 10 10 11 11 10 9 9 9 9 9 9
5 5 6 4 4 4 3 3 3 3 3 3 5 1 1 2 2 5 7 4 6 10 7 11 17 19 21 25 28 28 27 26 21 19 21 22 27 30 30 30 31 30 31 33 34 33 33 33 31 30 30 30 29 28 26 24 21 20 19 18 16 14 12 12 12 11 10 10 9 7 6 5 5 5 7 10 10 9 8 7 5 3 3 7 8 9 11 12 13 12 12 11 9 9 8 9 8
3 2 6 2 4 6 2 3 5 3 2 2 3 0 2 3 3 6 6 7 8 8 6 9 11 12 13 14 16 16 15 17 17 16 18 20 25 30 30 29 30 31 31 32 34 34 34 33 32 31 31 31 30 29 27 24 21 20 20 19 17 14 13 13 13 12 10 10 9 9 8 8 8 7 7 9 10 10 8 8 6 4 4 6 8 8 10 13 14 14 13 12 11 10 9 8 8
1 2 3 3 4 7 4 1 0 2 3 1 2 1 4 2 2 6 8 9 10 9 6 4 3 4 4 2 2 4 5 8 10 11 15 17 22 28 28 26 27 29 30 31 33 35 34 32 32 31 32 32 31 30 27 24 22 21 20 19 17 15 13 13 13 13 12 11 11 10 9 10 11 9 8 8 10 11 10 9 7 5 4 5 7 8 9 11 13 13 13 12 12 11 10 10 8
4 2 5 2 3 4 4 2 3 4 2 2 2 1 3 1 0 4 7 9 10 10 9 9 10 9 7 7 5 2 2 4 7 9 12 14 17 22 24 22 22 24 27 28 30 33 32 31 31 31 32 33 32 29 27 24 22 21 20 20 19 17 14 13 13 13 13 13 12 10 8 9 11 11 9 9 10 11 11 10 8 6 4 4 6 8 8 9 11 11 10 10 10 11 12 12 10
5 4 3 4 3 0 1 2 1 1 2 1 2 1 1 1 1 5 7 7 7 8 8 9 10 10 8 6 5 4 5 6 7 8 10 11 13 17 21 19 18 20 23 24 26 29 31 30 29 30 31 33 31 29 27 25 23 22 23 22 20 17 15 14 13 14 14 13 12 9 8 8 10 11 10 10 11 11 11 10 8 6 5 5 7 9 9 10 10 10 10 9 9 9 10 11 11
3 3 1 2 3 4 2 3 4 3 3 2 0 1 2 2 2 5 7 5 2 4 6 7 6 7 7 6 4 4 5 8 10 11 12 11 8 10 15 18 17 18 19 20 22 24 26 26 27 29 31 32 31 29 28 27 25 25 25 23 20 18 16 14 14 15 14 13 11 8 8 9 11 11 11 12 12 12 11 10 9 7 6 7 9 11 12 12 12 12 11 11 10 10 10 12 14
3 2 1 1 2 3 2 1 2 4 4 3 3 1 3 2 2 5 6 4 2 4 4 4 5 6 7 6 6 7 7 9 11 13 14 13 8 7 10 13 16 17 17 18 19 20 22 23 25 28 30 31 31 30 29 28 27 27 26 22 20 19 17 15 14 15 14 13 10 8 9 10 11 11 11 12 13 13 12 11 10 9 9 10 12 13 13 13 13 13 13 13 12 11 10 12 14
5 3 3 3 2 4 3 1 1 3 4 4 5 3 4 2 2 3 3 1 1 4 5 5 6 7 7 5 4 5 7 10 11 12 11 9 6 7 7 8 12 14 14 14 16 18 20 21 21 24 27 31 31 31 30 28 28 28 25 23 22 20 17 15 15 15 15 13 10 9 10 10 11 10 11 12 14 14 13 12 12 13 13 13 14 14 14 13 13 12 13 12 12 11 11 11 13
Wind_Direction
149 144 141 144 144 142 147 139 132 329 87 251 251 219 252 233 237 281 270 276 318 314 38 36 126 147 122 114 122 109 58 78 182 136 170 146 144 148 150 159 164 168 166 163 166 166 166 166 166 165 164 161 160 159 156 151 145 141 136 134 131 128 129 135 142 146 148 146 145 146 148 151 154 158 157 157 156 157 158 157 153 146 142 135 124 114 116 120 119 118 119 118 119 117 114 109 104
152 150 146 145 145 144 170 123 101 332 58 280 256 183 249 275 212 237 244 233 238 221 77 65 82 93 89 87 82 67 39 12 218 122 127 142 147 148 151 161 167 169 167 166 168 166 165 165 165 165 164 162 161 159 156 152 147 143 139 137 133 130 130 135 141 145 147 147 146 146 148 149 152 153 151 152 154 156 154 149 147 143 140 136 126 118 120 122 122 123 123 122 121 118 113 107 103
155 153 145 146 143 135 136 85 75 117 135 250 263 219 248 271 222 247 248 233 253 215 134 84 69 72 77 64 32 55 66 37 132 130 133 151 153 151 157 164 168 170 168 167 167 166 165 164 164 165 165 163 161 159 155 152 149 146 143 141 137 133 133 136 141 144 147 148 148 148 148 149 151 150 147 150 152 150 145 143 144 144 142 137 127 122 124 125 126 127 126 125 122 117 112 107 102
155 149 145 148 141 117 98 79 125 137 199 233 273 255 234 239 243 272 262 283 285 222 182 133 64 76 104 105 96 87 105 140 141 138 144 159 156 152 161 166 169 170 169 168 167 166 165 163 163 165 166 164 161 158 155 154 152 149 146 144 140 136 136 138 141 146 148 149 149 147 144 146 149 149 148 149 150 146 144 144 145 147 146 139 129 125 127 127 128 129 128 126 122 117 113 108 103
153 148 149 146 135 124 85 105 126 155 217 196 248 260 226 234 247 291 291 317 308 231 196 148 113 94 99 97 120 120 146 155 148 147 150 159 159 155 162 168 170 170 169 168 166 165 163 162 162 166 167 164 161 157 156 156 155 152 149 146 142 139 138 139 142 146 149 150 149 144 140 142 145 150 152 150 149 146 145 145 146 148 145 139 131 128 130 129 130 130 130 127 124 120 115 111 106
153 148 149 139 99 97 109 155 208 227 226 178 241 269 243 241 265 302 308 327 317 221 198 170 162 121 98 69 100 130 141 151 153 155 154 158 162 160 165 170 170 170 169 167 165 164 161 161 162 166 167 165 162 158 157 158 158 155 152 150 144 140 140 140 143 147 148 149 148 141 139 143 147 152 150 147 145 140 141 142 144 144 143 141 134 132 133 132 132 132 131 129 126 122 119 114 111
155 152 148 133 45 59 122 205 231 241 249 206 237 276 270 274 285 295 310 331 331 193 221 210 150 119 102 96 110 120 134 148 152 156 156 159 164 163 167 171 170 169 168 165 163 162 160 160 163 167 167 165 163 159 159 160 161 158 154 152 147 141 141 142 144 148 149 148 144 137 140 146 151 153 149 145 139 134 137 138 141 143 146 146 139 137 136 134 133 133 133 131 129 125 122 119 117
155 153 125 110 26 25 109 244 247 229 251 241 250 271 274 280 282 288 292 294 269 231 221 177 150 97 95 125 114 140 151 145 146 153 157 160 164 164 168 171 170 169 166 163 160 160 160 161 164 167 167 166 164 161 160 162 162 160 155 154 152 144 142 144 145 148 150 148 142 139 146 149 150 153 151 146 136 134 136 136 138 141 145 147 143 141 140 138 136 136 137 135 133 129 127 124 122
154 147 113 107 98 359 294 272 269 241 248 262 267 266 269 275 279 283 276 251 232 239 193 175 197 12 126 98 97 144 151 148 146 150 156 158 162 164 169 171 171 168 163 161 159 160 161 163 166 167 168 167 165 162 162 164 165 162 156 156 156 149 145 145 147 148 149 148 145 144 149 150 151 151 148 141 135 135 134 134 136 136 140 144 142 141 143 142 140 140 140 138 136 132 131 130 129
156 153 133 103 117 310 281 271 266 261 259 251 260 266 270 274 279 272 264 274 251 210 182 185 236 117 126 94 97 148 156 154 151 151 156 158 163 167 169 172 172 167 161 159 159 161 162 164 167 168 169 168 167 164 163 165 166 164 159 158 160 155 149 148 147 147 146 146 147 147 148 150 151 148 142 134 134 134 132 133 133 136 139 142 145 143 144 146 144 143 143 142 139 136 135 136 135
157 165 127 89 98 247 255 273 274 273 273 270 275 272 274 275 275 270 264 274 251 170 165 178 146 124 115 96 110 155 159 157 155 152 157 161 166 170 169 170 171 166 159 158 159 161 162 164 167 169 170 170 169 166 164 166 166 166 163 161 162 160 153 152 149 145 145 144 145 147 151 152 147 144 138 133 137 138 133 135 135 139 141 143 151 148 146 149 149 147 146 146 143 142 141 141 140
165 134 98 101 159 201 226 261 274 287 288 287 276 278 292 286 271 257 262 233 173 158 172 170 147 131 103 90 133 155 156 157 156 150 158 165 169 170 168 167 167 163 158 158 160 162 163 165 168 170 172 171 170 168 166 167 168 169 168 166 165 165 159 154 149 145 147 143 143 147 152 150 144 143 141 140 145 143 135 139 142 142 142 142 151 151 148 151 153 152 151 151 148 147 145 145 146
180 132 101 129 193 189 226 250 275 303 297 276 249 296 312 296 273 236 208 143 160 173 204 174 150 131 94 129 147 157 156 156 153 148 158 166 169 169 166 164 162 160 158 160 161 163 164 167 169 171 173 173 171 169 167 168 170 172 171 170 169 169 161 152 149 150 149 143 143 146 149 145 143 144 145 148 150 145 136 138 141 138 136 134 139 144 149 151 154 156 156 156 154 152 149 150 152
182 144 125 184 246 179 213 248 274 297 276 275 282 326 325 313 293 214 153 115 176 180 167 162 151 124 113 139 150 163 160 157 152 148 156 163 168 166 164 162 161 161 160 162 163 164 166 169 170 172 174 173 173 170 169 171 173 174 174 174 174 171 159 153 155 155 150 143 143 143 144 143 144 147 149 152 150 142 134 131 130 127 128 128 126 128 138 145 151 159 162 161 158 156 155 155 156
188 144 109 121 311 264 235 228 236 236 272 287 312 335 335 338 357 144 140 131 197 160 144 154 155 125 156 165 167 170 166 159 153 151 153 161 166 163 163 161 161 162 161 164 164 166 168 171 172 174 175 173 174 172 172 174 176 177 177 177 177 171 158 158 162 159 153 146 146 144 145 147 147 151 151 151 145 138 131 125 121 121 123 121 114 110 116 127 136 148 160 166 163 160 161 161 161
192 178 71 96 263 239 229 222 198 230 271 297 317 339 346 339 1 86 152 165 135 141 142 152 167 179 179 178 172 171 167 159 155 155 153 159 165 163 163 162 163 163 163 166 166 169 171 173 174 175 176 174 176 176 176 176 177 180 180 180 179 170 160 165 168 161 156 152 154 152 149 150 149 151 148 146 141 135 129 122 120 118 116 112 108 106 109 116 121 130 146 162 167 166 166 167 166
180 173 78 261 235 208 215 214 178 210 271 301 322 343 356 328 338 65 119 139 126 136 129 154 195 251 187 181 172 169 166 161 160 159 156 159 165 164 165 164 165 165 166 168 169 172 173 176 177 176 176 176 178 178 178 177 178 181 182 181 178 168 163 170 172 164 162 159 161 159 153 150 146 146 146 144 139 134 129 123 120 116 113 111 110 113 115 116 121 127 134 146 160 169 170 171 171
179 128 139 228 235 221 194 191 211 234 290 311 318 331 346 321 324 64 98 110 110 116 94 131 179 199 176 174 167 166 165 166 165 164 161 161 166 166 167 167 168 167 167 169 171 174 175 179 179 177 177 178 180 179 179 181 182 182 182 184 177 167 168 176 177 173 171 167 163 159 155 150 146 146 144 142 139 137 132 126 122 117 114 115 117 120 120 119 120 125 129 132 144 160 169 174 178
184 128 153 228 222 223 205 219 262 286 294 305 306 312 334 323 301 294 63 82 99 100 81 107 122 130 154 160 161 165 168 170 170 169 167 164 167 168 169 170 170 169 169 170 172 176 178 182 182 181 179 179 182 181 182 184 184 183 184 188 181 171 175 180 182 182 180 175 168 162 158 152 150 148 144 144 145 142 137 131 127 122 120 122 125 123 120 121 121 124 129 134 137 150 163 172 178
194 174 201 239 224 263 271 269 278 289 289 294 297 302 321 319 298 244 185 115 69 134 133 120 124 138 151 156 161 166 169 172 174 174 172 171 170 171 172 171 169 169 170 172 174 177 182 184 185 185 184 182 183 185 186 188 187 186 186 190 186 177 181 185 184 188 187 182 175 170 163 158 159 155 149 151 152 148 142 137 131 127 128 128 126 123 122 125 126 131 135 140 143 148 158 166 174
191 182 218 242 226 278 271 277 283 287 286 278 287 300 307 313 306 215 168 118 309 226 180 165 156 156 156 160 165 168 171 174 177 177 177 175 173 175 173 168 168 169 171 175 177 179 184 188 188 188 188 186 186 188 189 191 191 190 189 190 190 182 187 191 189 192 192 186 183 179 170 164 166 164 155 158 160 153 146 138 134 134 137 134 129 126 129 131 131 137 142 148 151 153 157 163 170
208 210 240 252 253 269 276 290 289 287 289 289 293 297 292 307 312 195 174 157 225 216 196 182 174 168 165 169 169 171 174 176 178 179 179 176 176 178 173 166 167 169 172 177 179 182 185 190 191 191 191 189 189 192 191 194 196 195 192 193 195 188 192 196 192 196 195 189 189 187 179 172 172 169 160 167 170 158 150 147 144 145 145 139 135 135 134 137 139 144 148 156 161 163 164 164 169
245 261 253 260 254 251 279 288 289 288 290 292 284 286 291 308 288 204 195 211 225 214 202 186 178 174 171 173 173 176 179 179 179 178 178 177 176 173 165 161 161 164 172 178 181 184 187 191 194 194 195 192 192 194 195 198 199 200 198 197 197 194 196 197 194 196 194 189 192 192 186 180 176 176 175 179 176 164 161 160 157 153 149 145 148 152 149 145 144 148 152 160 169 175 177 173 172
220 265 263 269 265 259 276 281 284 285 281 280 281 288 291 279 253 218 210 226 246 237 203 181 173 171 172 174 177 180 181 183 181 180 180 174 170 164 150 150 156 165 174 178 182 187 190 193 196 198 199 198 197 196 199 202 202 204 203 201 200 199 201 198 195 195 189 187 193 194 190 184 181 185 188 186 184 176 168 163 161 156 153 157 170 177 172 161 151 151 157 167 175 183 190 192 189
217 245 261 271 272 269 277 278 280 282 280 283 284 281 275 269 240 202 222 234 239 216 190 173 170 171 173 177 180 182 183 182 173 170 167 153 156 159 148 151 163 172 175 175 181 188 193 196 198 202 203 202 202 200 203 205 206 208 205 204 203 202 203 198 196 194 189 188 191 193 190 187 188 192 189 185 189 184 171 163 160 156 159 166 178 191 190 178 162 153 159 175 184 190 196 204 204
215 226 250 263 271 273 277 277 276 279 282 284 284 268 273 273 198 179 240 217 189 178 174 169 171 172 177 182 182 179 172 136 80 78 116 119 139 146 143 155 170 175 174 175 183 189 194 198 201 204 206 206 206 205 207 209 211 212 210 208 204 203 203 198 195 194 192 188 188 190 190 189 190 190 184 185 189 186 178 170 166 166 175 175 172 181 182 175 167 154 150 164 183 194 196 206 210
245 241 254 260 267 272 273 272 273 278 282 277 264 257 274 273 180 201 204 178 171 164 162 168 174 177 184 185 177 168 157 121 81 90 111 114 132 127 125 145 158 168 174 179 186 192 196 199 204 208 210 211 210 210 210 211 213 214 213 207 200 200 202 199 195 196 196 188 187 191 189 188 188 186 185 187 190 190 187 178 177 179 179 176 167 165 165 162 157 149 143 147 165 190 198 208 216
263 271 280 278 276 275 268 264 269 272 278 270 247 246 278 283 203 204 172 171 172 163 159 168 177 181 186 181 166 160 172 178 169 162 146 129 132 122 121 130 121 146 173 184 187 195 200 203 210 211 211 214 213 212 213 211 210 212 211 203 196 197 201 202 197 197 197 190 189 189 186 187 187 190 194 191 190 192 192 190 191 182 171 172 170 165 166 167 159 146 149 153 157 180 194 200 209
273 276 292 295 309 297 261 250 256 244 249 266 240 256 293 291 253 210 164 166 165 160 160 167 177 181 182 173 166 167 179 187 180 175 167 148 147 157 153 145 144 154 163 191 201 204 206 211 218 215 211 211 210 212 214 210 207 209 205 198 194 195 201 204 199 195 195 193 190 187 186 189 189 194 200 192 190 192 195 202 203 189 179 188 190 181 182 190 189 174 173 180 177 179 185 187 193
277 257 220 300 327 310 262 243 244 220 247 256 196 227 286 257 264 208 158 163 156 152 160 167 178 180 173 170 173 174 183 192 184 181 182 175 173 175 168 159 159 160 157 167 197 213 211 214 220 219 211 204 203 208 211 209 204 203 200 196 193 194 199 202 198 196 198 195 189 187 190 193 195 197 201 199 196 196 200 209 215 206 203 209 204 191 191 198 199 193 194 193 188 186 182 176 173
294 285 293 304 288 280 289 295 238 213 270 234 167 202 259 251 265 191 162 167 158 154 161 170 180 176 163 164 170 173 186 196 190 181 183 186 179 172 171 167 163 165 168 170 183 200 203 206 210 216 212 199 197 205 206 204 201 199 199 196 191 192 196 198 198 199 198 192 187 189 195 201 203 202 205 203 200 203 208 213 215 208 207 210 204 195 196 202 205 205 204 201 198 195 188 179 168
14 279 290 315 207 265 304 303 227 216 268 194 156 225 262 255 266 185 167 171 163 156 161 176 182 171 154 153 160 169 178 184 186 183 181 181 174 171 176 174 169 171 181 186 187 191 193 197 201 209 212 197 191 197 197 198 198 198 198 193 190 192 194 195 196 197 193 188 189 193 200 208 209 207 208 205 204 210 211 207 203 203 208 205 198 198 201 203 207 210 207 205 205 203 199 189 174
5 199 253 285 257 295 320 307 265 221 248 210 168 210 252 264 271 178 172 175 166 155 163 180 179 165 153 151 156 163 166 170 183 189 182 179 176 178 184 184 182 181 188 192 189 188 188 190 194 203 208 193 185 188 189 194 195 195 195 190 190 192 191 192 193 194 193 191 191 195 203 212 213 209 207 204 204 205 204 201 200 205 206 196 192 195 195 195 201 206 202 199 201 206 211 197 177
322 358 253 259 254 278 302 305 310 323 268 264 228 220 233 266 284 166 176 179 165 156 169 179 173 159 155 157 162 165 167 174 188 190 182 181 183 187 192 193 194 193 194 192 187 187 187 188 191 197 199 187 182 183 186 192 192 193 193 188 190 190 190 192 191 192 195 194 193 198 209 214 213 210 206 203 200 197 200 202 201 200 193 187 185 185 184 186 192 195 193 191 192 197 199 186 176
204 269 250 282 284 266 263 265 297 347 351 264 281 282 256 270 276 164 180 184 169 167 176 175 164 154 155 163 170 173 179 187 192 190 182 183 187 191 194 193 194 195 192 188 184 185 187 188 189 191 189 181 178 181 185 189 190 190 188 186 189 190 192 192 189 189 194 197 199 206 212 211 209 206 200 198 195 197 201 198 196 190 182 177 176 179 179 175 179 186 188 189 191 192 186 173 173
183 190 179 245 285 274 262 248 258 306 315 281 274 268 266 271 267 168 183 187 171 172 174 163 154 153 157 166 174 178 185 192 193 188 184 188 192 195 194 191 192 192 185 180 180 183 185 184 185 185 182 179 177 179 182 184 185 185 184 186 190 190 189 188 188 193 196 199 204 210 209 203 198 189 186 190 190 192 191 187 188 185 178 172 170 176 178 172 173 183 191 194 196 195 184 170 168
267 238 227 249 264 276 275 270 271 287 299 279 262 262 271 265 266 192 179 178 160 169 168 157 155 156 163 171 180 183 186 193 192 187 189 192 196 196 192 190 192 188 179 176 180 181 180 180 182 181 180 180 178 177 179 180 182 183 184 188 191 189 187 184 187 193 195 197 200 203 198 186 178 173 177 182 182 183 181 180 184 184 180 175 172 175 177 177 177 185 194 196 195 196 191 180 169
256 255 283 280 251 266 275 276 282 283 223 267 275 284 274 262 274 194 171 166 162 175 168 160 162 162 170 177 184 186 190 193 188 187 190 193 195 193 189 189 191 184 176 177 181 179 177 178 180 181 180 179 177 176 177 180 185 185 187 190 191 191 190 185 183 185 186 185 185 185 179 170 166 166 168 170 173 175 176 178 180 181 180 176 175 175 175 177 180 187 196 200 199 197 196 192 180
225 242 290 280 262 282 286 284 286 277 148 260 285 279 269 272 303 150 172 176 183 182 175 169 166 166 174 181 184 186 189 188 184 187 190 192 194 190 187 189 188 182 177 179 182 178 174 175 178 181 180 177 174 175 178 183 187 188 192 194 192 194 191 183 178 176 172 170 172 172 169 166 162 161 164 170 176 175 176 179 178 175 174 175 174 177 179 179 181 185 191 201 207 204 199 198 192
212 201 210 265 268 284 281 293 305 295 237 263 288 282 279 312 85 136 199 194 185 178 174 173 171 174 179 184 185 186 185 183 184 188 190 193 194 189 188 189 187 182 179 180 181 177 172 173 177 180 179 176 174 176 179 185 187 187 190 188 188 191 185 178 174 170 164 163 169 169 168 167 164 166 169 173 173 170 170 172 173 172 172 173 172 177 184 185 184 183 187 193 202 208 207 202 196
238 205 196 241 258 236 241 281 315 320 307 270 317 326 308 337 74 38 345 208 160 150 157 168 177 179 180 182 184 185 184 182 184 187 189 192 192 189 189 189 186 183 181 182 181 177 173 173 177 179 179 178 177 178 179 184 187 187 184 179 181 183 178 174 170 164 160 164 170 168 164 161 162 165 166 166 164 163 165 168 171 174 178 179 175 178 186 190 188 183 187 189 192 203 210 209 205
270 224 202 217 241 245 246 279 323 357 323 289 56 359 307 327 14 19 353 60 119 141 153 164 176 176 177 181 183 185 185 184 185 186 189 191 190 187 188 188 186 184 183 183 181 178 176 177 179 180 181 180 179 180 180 185 190 190 185 181 183 182 174 169 167 166 165 168 169 161 155 154 159 166 168 170 172 173 176 178 181 183 187 189 187 191 193 194 194 191 192 187 188 195 202 213 218
265 235 204 208 223 239 246 256 264 332 283 268 81 113 259 313 360 357 345 100 122 144 152 162 172 172 178 183 183 185 186 186 187 189 192 191 189 188 188 188 187 184 184 183 181 181 181 181 182 182 182 182 182 183 182 186 191 192 188 185 188 184 172 164 164 167 168 166 163 159 158 157 159 169 176 176 177 184 189 189 190 190 193 194 196 202 202 200 200 198 199 190 185 189 195 205 215
248 225 185 198 213 222 226 221 210 228 272 297 28 123 185 296 324 349 15 121 132 145 154 165 174 176 180 182 183 185 185 187 189 193 194 191 190 189 186 187 187 185 186 183 181 183 183 183 183 184 184 184 185 186 185 188 191 191 187 184 187 184 174 167 165 167 169 167 166 166 165 158 145 143 160 170 172 181 188 185 184 187 192 194 198 204 203 200 193 191 196 193 183 182 187 193 208
244 218 173 201 210 209 212 190 191 246 352 311 309 86 122 281 286 346 24 129 148 167 175 177 180 183 184 184 186 187 188 190 192 194 195 192 192 190 186 187 187 186 187 184 181 182 183 183 183 184 185 186 187 187 187 189 190 190 186 184 184 183 183 179 171 171 173 172 171 167 163 155 138 121 138 161 169 173 178 177 175 180 188 191 193 203 212 202 179 178 187 187 182 182 183 182 195
235 192 169 213 198 179 187 138 139 26 47 261 272 234 122 267 285 335 17 155 171 182 185 187 188 190 191 191 193 194 193 195 196 197 198 194 192 192 188 186 186 187 188 186 183 182 182 183 183 183 185 187 188 187 188 188 188 191 190 186 184 183 186 186 179 177 176 173 171 167 165 160 153 144 144 161 172 174 176 174 171 174 183 190 195 208 219 203 171 169 177 178 182 186 187 182 184
192 136 183 232 345 44 57 83 101 82 286 255 252 215 135 283 280 227 187 205 189 178 179 193 200 201 202 202 201 199 198 199 201 200 199 195 193 194 190 187 187 186 187 188 186 185 183 183 182 183 185 187 187 186 187 187 190 194 193 190 187 185 188 191 187 182 178 175 173 171 172 169 169 179 172 167 175 181 185 183 180 181 189 202 209 209 203 182 166 167 172 170 177 184 185 184 182
147 107 167 211 305 12 37 2 54 108 248 265 254 213 138 112 259 232 236 258 207 185 181 184 193 202 204 203 202 202 203 209 209 204 199 193 190 194 193 190 190 187 187 189 189 188 186 184 183 184 185 185 187 187 188 188 191 194 196 195 193 192 197 197 192 186 181 179 177 175 175 177 183 197 203 185 181 185 190 190 189 203 238 236 210 189 176 167 163 165 168 170 172 173 173 176 177
144 115 99 113 297 350 7 303 82 181 239 266 277 220 139 181 239 242 273 277 220 206 210 193 187 188 190 190 192 197 204 212 214 210 203 190 185 193 196 194 194 192 189 190 190 191 190 187 185 185 185 185 188 190 191 192 193 195 200 200 199 203 208 204 197 191 186 183 181 179 178 185 198 213 220 201 184 183 191 197 200 228 273 224 186 174 170 167 165 165 169 174 173 171 171 172 174
156 157 135 134 136 77 297 271 229 243 230 262 296 286 182 259 272 280 291 279 211 205 238 208 186 182 184 189 192 196 201 204 206 211 208 191 184 194 198 195 197 196 192 191 190 191 191 189 187 186 186 187 190 192 193 195 197 199 203 204 205 212 214 204 196 192 191 190 187 183 180 186 203 221 212 196 183 184 196 205 221 256 204 171 166 171 175 173 172 173 175 179 177 174 175 177 181
176 166 137 143 151 153 228 224 184 233 229 298 323 337 157 217 286 302 303 311 156 165 190 192 188 192 192 193 195 196 201 200 198 211 215 198 189 196 199 197 198 197 193 190 188 189 190 190 189 188 188 189 191 193 194 197 199 199 202 204 209 217 216 202 194 195 197 194 193 191 180 174 188 198 192 190 189 192 206 216 236 250 173 149 151 164 174 177 178 179 179 181 178 173 178 183 184
217 144 109 142 182 157 185 196 174 185 165 356 341 266 207 210 279 330 3 33 61 95 131 164 183 201 197 195 198 200 206 203 199 212 219 207 197 200 202 198 198 198 195 190 187 189 190 189 189 189 190 191 192 193 194 195 196 195 198 204 209 214 212 202 197 200 204 203 202 198 183 172 180 187 183 192 199 201 213 225 235 234 169 144 147 152 165 177 182 184 183 184 179 173 180 185 184
204 126 155 206 170 134 125 191 76 68 125 330 340 272 310 329 341 357 31 37 28 36 46 77 121 193 183 147 179 206 223 215 210 219 225 220 209 206 205 201 199 199 198 194 189 190 191 190 190 190 191 192 192 192 191 191 193 195 201 206 208 208 206 204 204 206 209 209 203 199 193 177 171 177 182 192 203 207 216 228 233 224 181 155 153 146 148 164 176 185 188 189 188 185 189 191 191
126 189 202 172 75 92 110 136 14 38 143 269 332 214 300 12 32 345 23 32 20 19 22 28 26 17 21 37 58 110 151 197 217 221 221 229 224 214 207 202 201 203 203 200 194 193 193 192 193 193 192 192 191 190 189 190 195 201 206 205 205 205 205 207 210 212 212 205 196 197 207 191 170 173 182 189 201 208 215 224 228 220 194 166 157 151 146 149 160 171 176 179 183 186 193 197 196
132 175 173 110 100 175 108 134 129 98 157 289 342 278 257 168 237 330 359 8 11 22 34 41 32 25 33 48 70 96 100 131 182 202 207 221 229 223 214 205 200 204 208 206 199 197 197 197 198 197 194 192 191 190 190 192 197 201 203 201 200 203 206 211 215 216 211 201 195 197 203 196 178 174 184 189 195 203 208 214 216 213 199 171 159 157 154 150 149 151 151 154 158 166 180 187 182
81 95 58 56 129 163 173 157 153 148 158 172 30 318 275 222 273 323 320 309 5 57 56 62 61 65 84 103 130 141 124 136 162 180 193 198 193 197 204 204 201 202 209 210 205 203 204 203 201 198 195 192 192 193 194 197 198 199 199 196 197 202 206 213 216 214 207 198 195 191 180 180 177 176 184 188 189 194 200 203 202 198 188 169 159 156 154 150 147 143 140 140 142 150 164 170 169
108 116 216 343 76 129 153 151 119 127 146 164 144 218 264 249 304 316 303 274 190 114 91 89 86 85 102 136 160 158 150 153 156 163 182 194 180 161 172 187 198 204 208 211 211 211 211 209 204 198 194 193 194 196 197 199 199 199 197 193 193 200 205 210 212 209 202 193 186 174 166 171 174 174 181 185 185 187 194 197 189 177 171 164 158 154 151 149 147 146 144 142 142 147 157 165 172
143 155 182 157 130 126 132 257 293 108 125 162 151 180 266 299 350 328 330 307 144 105 98 83 70 78 98 122 151 160 152 150 142 142 159 176 184 192 188 184 199 207 208 212 217 216 214 212 205 196 195 196 197 197 198 199 199 198 197 193 191 196 201 203 206 202 193 186 178 165 162 168 173 175 179 183 183 181 186 192 180 167 164 164 161 156 153 152 153 154 153 151 151 152 156 164 172